MST,Max TemperatureF,Mean TemperatureF,Min TemperatureF,Max Dew PointF,MeanDew PointF,Min DewpointF,Max Humidity, Mean Humidity, Min Humidity, Max Sea Level PressureIn, Mean Sea Level PressureIn, Min Sea Level PressureIn, Max VisibilityMiles, Mean VisibilityMiles, Min VisibilityMiles, Max Wind SpeedMPH, Mean Wind SpeedMPH, Max Gust SpeedMPH,PrecipitationIn, CloudCover, Events, WindDirDegrees
2012-11-1,87,70,53,32,30,27,44,22,11,30.01,29.93,29.86,10,10,10,8,5,,0.00,3,,54
2012-11-2,87,72,57,37,35,32,41,26,15,29.97,29.90,29.85,10,10,10,7,5,,0.00,3,,185
2012-11-3,86,72,57,45,39,36,48,31,18,30.06,30.01,29.97,10,10,10,9,5,,0.00,2,,54
2012-11-4,89,72,55,39,36,34,48,26,14,30.12,30.06,30.01,10,10,10,7,5,,0.00,1,,63
2012-11-5,89,71,53,36,31,25,51,22,10,30.13,30.06,30.00,10,10,10,9,5,,0.00,0,,98
2012-11-6,89,72,55,37,33,30,38,23,13,30.12,30.04,29.97,10,10,10,10,6,,0.00,0,,77
2012-11-7,87,72,57,37,35,32,41,25,15,30.06,29.97,29.89,10,10,10,7,6,,0.00,0,,250
2012-11-8,86,70,55,54,40,30,56,33,13,29.96,29.90,29.84,10,10,10,12,7,,0.00,5,Rain,275
2012-11-9,75,66,57,54,48,41,88,50,36,29.86,29.79,29.72,10,10,10,16,9,17,0.00,6,,242
2012-11-10,64,56,48,45,31,25,59,39,26,30.01,29.97,29.91,10,10,10,17,10,21,0.00,4,,241
2012-11-11,64,53,42,39,22,16,87,32,15,30.31,30.27,30.19,10,10,10,9,5,,0.00,0,,25
2012-11-12,73,58,42,28,16,10,57,21,9,30.30,30.19,30.12,10,10,10,12,5,18,0.00,1,,54
2012-11-13,75,58,42,23,21,18,39,22,12,30.20,30.13,30.06,10,10,10,7,4,,0.00,0,,-1
2012-11-14,80,63,46,25,23,19,40,21,10,30.14,30.07,30.00,10,10,10,12,7,,0.00,5,,69
2012-11-15,71,60,48,37,18,-134,51,26,4,30.15,30.09,30.06,10,10,10,8,5,,0.00,7,,287
2012-11-16,78,63,48,36,30,21,58,29,12,30.13,30.06,30.02,10,10,10,7,4,,0.00,2,,250
2012-11-17,77,65,53,37,33,28,41,31,17,30.12,30.07,30.02,10,10,10,8,5,,0.00,5,,46
2012-11-18,80,66,51,45,41,36,54,39,28,30.11,30.07,30.04,10,10,10,6,5,,0.00,3,,20
2012-11-19,78,64,51,45,42,39,67,42,28,30.23,30.17,30.13,10,10,10,9,5,,0.00,1,,50
2012-11-20,80,65,50,39,38,36,62,36,21,30.17,30.08,30.00,10,10,10,9,6,,0.00,1,,55
2012-11-21,80,66,51,39,37,36,54,34,21,30.08,30.01,29.95,10,10,10,8,4,,0.00,2,,254
2012-11-22,80,63,46,39,36,34,66,37,18,30.13,30.07,30.03,10,10,10,9,5,,0.00,2,,70
2012-11-23,82,64,46,37,34,30,62,32,15,30.21,30.14,30.09,10,10,10,7,4,,0.00,0,,60
2012-11-24,84,67,50,36,34,30,54,28,15,30.14,30.04,29.95,10,10,10,12,7,,0.00,0,,49
2012-11-25,80,66,51,39,36,34,50,33,21,29.98,29.91,29.83,10,10,10,9,5,,0.00,0,,73
2012-11-26,78,64,51,37,36,34,54,38,21,30.08,30.03,29.98,10,10,10,8,4,,0.00,2,,72
2012-11-27,80,64,48,39,36,34,71,36,18,30.20,30.12,30.05,10,10,10,10,8,,0.00,5,,54
2012-11-28,78,66,53,39,37,34,51,33,21,30.16,30.11,30.06,10,10,10,8,6,,0.00,3,,75
2012-11-29,77,64,50,45,40,36,58,41,28,30.21,30.15,30.09,10,10,10,7,5,,0.00,3,,226
2012-11-30,75,63,51,52,45,39,62,49,36,30.18,30.12,30.06,10,10,10,8,5,,0.00,5,,90